Commit Graph
100 Commits
Author SHA1 Message Date
infinitefusion ae4055f4b7 Adds menu option for no levels mode 2023-03-04 19:21:01 -05:00
infinitefusion 33065a8f45 Sprites now get downloaded to battlers folder instead of temp folder 2023-03-04 17:06:25 -05:00
infinitefusion c29e428f90 battle tower stuff 2023-03-04 15:54:45 -05:00
infinitefusion 64cd9bc9fa Various map fixes 2023-02-13 21:11:46 -05:00
infinitefusion 69d5b7e708 Removes create PBS debug command 2023-02-13 21:11:27 -05:00
infinitefusion 0b64dcb3dd fixes download sprite option + various small fixes 2023-02-12 13:40:01 -05:00
infinitefusion d2e5828b62 Fixes land surfing 2023-02-12 13:24:44 -05:00
chardub 0aabfd982b Adds option to enable downloading sprites 2023-02-07 17:20:10 -05:00
chardub a487f45800 Adds experimental mode in which levels don't affect stats 2023-02-07 17:09:46 -05:00
chardub 80543cb31a sprites download fixes 2023-02-04 16:11:05 -05:00
chardub a53b9a4687 Makes it possible to download sprites at runtime 2023-02-02 21:44:06 -05:00
chardub ad2e6e728c Makes it possible to download sprites at runtime 2023-02-02 21:43:05 -05:00
chardub ee2e718361 Various bugfixes 2023-02-01 16:15:06 -05:00
chardub abb49168ba Various bugfixes 2023-01-15 11:11:29 -05:00
chardub c0aeb32c45 Adds date, game mode and difficulty to HoF screen + minor fixes 2023-01-07 12:59:28 -05:00
chardub 4ffba4437e Nicknaming from PC 2023-01-06 21:44:54 -05:00
chardub 759cfd7801 Makes it impossible to fuse eggs 2023-01-06 21:24:28 -05:00
chardub 599da9a390 other stuff missing from previous commit 2023-01-06 19:04:50 -05:00
chardub e7854f8afb bunch of fixes that had to be combined into one commit because github doesn't like large files and I accidentally included a large file 2023-01-06 19:02:05 -05:00
chardub 4f628e1b32 5.1.1 compile 2023-01-06 15:16:43 -05:00
chardub 9f084c31cb Removes temp value 2023-01-06 12:51:55 -05:00
chardub 70719de497 Adds hidden ability routes 2023-01-06 12:51:27 -05:00
chardub 3aab96dc6e Fix for pokemon that should be impossible to catch 2023-01-06 11:15:09 -05:00
chardub ba678d5b6b Fixes quest journal 2023-01-02 23:28:43 -05:00
chardub 950f7ef63c Merge remote-tracking branch 'origin/e19-release-beta' into e19-release-beta 2023-01-02 21:19:06 -05:00
chardub 86c1df08d1 Workaround for using pokeradar without repel 2023-01-02 21:18:36 -05:00
chardub 2acca429e3 Adds support for shinies in online wondertrade 2022-12-26 18:33:37 -05:00
chardub ada389d18d Basic online wondertrade system 2022-12-26 17:07:24 -05:00
infinitefusion 6d285827cb Fixes voltorb flip crash 2022-12-23 18:32:38 -05:00
infinitefusion 01deb262fb fixes soul dew 2022-12-17 11:06:30 -05:00
infinitefusion ecaa38d6c2 Random grammar fixes + fixes crash while using morning sun & moonlight in some indoor maps 2022-12-12 12:20:12 -05:00
infinitefusion 9ce39abad3 mt silver sequence break safeguard 2022-12-06 20:16:18 -05:00
infinitefusion 6a6b02df40 Fixes Disguise ability 2022-12-06 17:50:14 -05:00
infinitefusion 9b3185f299 Fixes real shinies being considered fake when fused as the head of a fusion 2022-12-06 17:38:03 -05:00
infinitefusion bc90211693 basic sprites sorting validation 2022-12-05 17:32:56 -05:00
infinitefusion 732096c884 options menu unselected text color 2022-12-04 11:05:18 -05:00
infinitefusion bedc8f1c2d custom sprites fixes + various map fixes 2022-11-30 21:44:55 -05:00
infinitefusion 28c9c4ada2 climbing gear + autosave fix 2022-11-30 17:54:33 -05:00
infinitefusion 7cd9760adf indexed custom battlers 2022-11-29 20:22:16 -05:00
infinitefusion 572796d7cc Mt. Silver - finished 2022-11-27 14:11:41 -05:00
infinitefusion 1482c4c1d0 Mt. silver (unfinished) maps & events 2022-11-26 18:49:22 -05:00
infinitefusion 75569daf27 Mt. silver, Rock Climb - startup performance 2022-11-26 15:11:57 -05:00
infinitefusion 215e6a2462 Intro movie (still need to make it skippable) 2022-11-22 22:16:25 -05:00
infinitefusion f0303769e6 Mt. Ember event finishes 2022-11-20 15:35:18 -05:00
infinitefusion 43e40f7381 Mt. Ember cutscene 2022-11-20 14:15:23 -05:00
infinitefusion 48e9db8538 mt. ember cutscene (wip) 2022-11-20 01:29:09 -05:00
infinitefusion 94b9f28648 Multi saves (commented out until future release) 2022-11-19 16:29:36 -05:00
infinitefusion e54a403857 Fixes issue with triple bird fusion 2022-11-19 13:43:51 -05:00
infinitefusion cb59497efe silph co. 5.1 minor changes 2022-11-17 22:22:47 -05:00
infinitefusion 7a3fa700b4 silph co. 5.1 2022-11-17 22:15:32 -05:00
infinitefusion 2131dde7cc wip team rocket cutscene 2022-11-14 20:23:49 -05:00
infinitefusion 47b1faa742 birdboss v2.0 2022-11-13 21:51:58 -05:00
infinitefusion 4fcb68cba3 More WIP 5.1 stuff 2022-11-13 19:37:44 -05:00
infinitefusion 22fb1ac9a3 WIP 5.1 stuff 2022-11-13 12:56:41 -05:00
infinitefusion 4351333703 non custom finals export + random changes 2022-11-12 09:35:32 -05:00
infinitefusion be6f800a45 feebas quest fix 2022-11-06 14:07:31 -05:00
infinitefusion a57a8777c8 evolution items overworld 2022-11-06 14:00:12 -05:00
infinitefusion 55786e28fa Nickname in fusion menu 2022-11-05 22:54:43 -04:00
infinitefusion e59254af3c double fusion preview screen 2022-11-05 19:53:14 -04:00
infinitefusion 5bcb63f57a [wip] double fusion preview screen 2022-11-05 01:23:06 -04:00
infinitefusion 2105dc00ab random stuff idk 2022-11-04 23:09:51 -04:00
infinitefusion 48e1f57ad4 Mankey Paw fix 2022-11-01 20:02:10 -04:00
infinitefusion cddcf22096 Fixes movesets reset bug 2022-11-01 19:08:31 -04:00
infinitefusion cd906e7f1c various fixes 2022-10-29 17:27:55 -04:00
infinitefusion 49f7edb06a shinifixes 2022-10-19 19:27:23 -04:00
infinitefusion 689b1f09df shinies glitter balls fix 2022-10-16 13:49:01 -04:00
infinitefusion 138d9f78f2 Adds exception for DNA Splicers in shops randomizer 2022-10-16 13:02:00 -04:00
infinitefusion 5f3e975c1e more fake shiny security 2022-10-16 12:38:55 -04:00
infinitefusion 4c8fc31bde fake shiny from shiny switch 2022-10-16 12:05:42 -04:00
infinitefusion 53082e910f double shinies and fake shinies 2022-10-16 11:56:35 -04:00
infinitefusion 749cdff356 shiny fusion fixes + custom starters option (events) 2022-10-08 13:52:17 -04:00
infinitefusion b3addeb867 shiny charm after mt. silver & dubious disc at battle factory 2022-10-07 23:19:56 -04:00
infinitefusion ced817731d fixes wrong name in fusion moves option screen 2022-10-07 22:59:08 -04:00
infinitefusion 8d804d5996 self fusions boosted exp 2022-10-07 22:52:58 -04:00
infinitefusion a500ef15bf Adds shinies 2022-10-07 20:38:11 -04:00
infinitefusion b762e653e0 Battle Factory improvements 2022-10-02 12:42:03 -04:00
infinitefusion 68aae5f061 Fixes pokeradar in wild pokemon area mode 2022-09-24 15:15:59 -04:00
infinitefusion 695c4fa924 Rock Smash tm exception for randomizer 2022-09-24 12:07:14 -04:00
infinitefusion 64adf81d6f minor fixes 2022-09-24 11:33:38 -04:00
infinitefusion 20e2b54ed8 new game plus fix - fix boosted exp & wrong intial stats 2022-09-24 10:49:39 -04:00
infinitefusion 7ab74acb28 saffron toll fix 2022-09-24 10:21:47 -04:00
infinitefusion 3db17e3f75 minor randomizer fixes + infinite dna reverse from pc 2022-09-24 09:45:22 -04:00
infinitefusion ec64343fd0 removes bst slider in randomizer menu when in intro 2022-09-24 00:07:42 -04:00
infinitefusion 34d5c77312 bst slider in randomizer menu 2022-09-23 23:52:19 -04:00
infinitefusion efd97dc9fe More item randomization options 2022-09-23 23:15:38 -04:00
infinitefusion 77c3220d10 Fixes area randomizing without custom sprites 2022-09-18 10:25:19 -04:00
infinitefusion c57045616d area randomizer + static encounters randomizer 2022-09-17 18:03:11 -04:00
infinitefusion a81e7240b4 integrated modern mode 2022-09-17 13:58:56 -04:00
infinitefusion 4527373b9d Removes frame for fusion menu 2022-09-11 09:10:58 -04:00
infinitefusion 185aaa1de7 fixes mist stone on egg glitch 2022-09-05 14:44:59 -04:00
infinitefusion 3bf6a1e2ba ability ball & incubators fix 2022-09-05 14:17:25 -04:00
infinitefusion d58c71781d ability evolution fix 2022-09-05 13:27:30 -04:00
infinitefusion 94f2833c52 race bicycle can go slow 2022-09-04 15:37:04 -04:00
infinitefusion 5001a0645c rehold consummable held items automatically after battle if some left in bag 2022-09-04 15:11:24 -04:00
infinitefusion d9f9ca1dfa indoor rain fix 2022-09-04 14:03:13 -04:00
infinitefusion 85ed883815 rare move tutor fix 2022-09-04 12:43:20 -04:00
infinitefusion 95301ed33d Adds rare move tutor game events 2022-09-03 13:09:47 -04:00
infinitefusion 4ff2bf4d7a rare moves tutor 2022-08-28 11:35:00 -04:00
infinitefusion 729f32faa0 unused moves tutor (probably won't compile, but the gist of it is there) 2022-08-28 00:29:05 -04:00
infinitefusion 33074417d2 Randomizer BST fix 2022-08-19 17:19:15 -04:00